Regional Weather Roundup
Issued by NWS

Home | Current Version | Previous Version | Text Only | Print | Product List | Glossary On
Versions: 1 2 3 4 5 6 7 8 9 10 11 12 13 14 15 16 17 18 19 20 21 22 23 24 25 26 27 28 29 30 31 32 33 34 35 36 37 38 39 40 41 42 43 44 45 46 47 48 49 50
000
ASUS43 KDTX 140310
RWRMI
MICHIGAN HOURLY REGIONAL WEATHER ROUNDUP
NATIONAL WEATHER SERVICE DETROIT/PONTIAC MI
1000 PM EST SAT FEB 13 2016

NOTE: "FAIR" INDICATES FEW OR NO CLOUDS BELOW 12,000 FEET WITH NO
SIGNIFICANT WEATHER AND/OR OBSTRUCTION TO VISIBILITY.

MIZ047>049-052>055-059>063-066>070-074>076-081>083-140400-
SOUTHEAST LOWER MICHIGAN

CITY           SKY/WX    TMP DP  RH WIND       PRES   REMARKS
ADRIAN         CLOUDY    12   5  73 N6        30.46S WCI   3
ALMA           CLEAR      9   1  69 W6        30.46S WCI  -1
ANN ARBOR      CLEAR     -1  -3  91 CALM      30.45S
BAD AXE        CLEAR     -6 -10  84 CALM      30.44S
CARO           CLOUDY   -11 -15  84 CALM      30.45S
DETROIT CITY   CLEAR      7  -3  64 CALM      30.47S
DETROIT        PTCLDY     8   4  83 CALM      30.48S
FLINT          CLEAR     -2  -8  76 CALM      30.45S
GROSSE ILE     CLEAR     10   5  79 CALM      30.46S
HILLSDALE      CLOUDY    11  -1  59 NW9G17    30.42S WCI  -2
HOWELL         CLEAR      3   1  90 CALM      30.43S

CITY           SKY/WX    TMP DP  RH WIND       PRES   REMARKS
JACKSON        CLOUDY    11   1  64 NW5       30.44R WCI   3
LAMBERTVILLE   CLOUDY    14   3  62 N5        30.47S WCI   6
LANSING        CLOUDY     9  -1  64 CALM      30.46R
LAPEER         CLOUDY    -6 -10  86 CALM      30.44S
MASON          CLEAR      8   0  70 CALM      30.44S
MONROE         PTCLDY    11   4  74 CALM      30.46S
MT. CLEMENS    CLEAR      2  -5  70 SW2       30.45S
PONTIAC        CLEAR      3  -4  72 CALM      30.42S
PORT HOPE        N/A     11  -1  58 NW16G23   30.42S WCI  -6
PORT HURON     CLEAR     -6  -9  84 CALM      30.46S
TRI CITIES     CLOUDY     8   1  73 SW6       30.46S WCI  -2
MIDLAND        CLOUDY     3  -3  74 CALM      30.45S
TROY           CLEAR     10   0  63 CALM      30.47S
SAGINAW HB     CLOUDY     9   3  78 SW6       30.46S WCI  -1
$$
MIZ043>046-050>051-056>058-064>065-071>073-077>080-140400-
SOUTHWEST LOWER MICHIGAN

CITY           SKY/WX    TMP DP  RH WIND       PRES   REMARKS
BATTLE CREEK   CLOUDY    12   4  70 NW3       30.45S
BENTON HARBOR  CLOUDY    16   4  59 CALM      30.48F
BIG RAPIDS     MOCLDY     8   2  78 W5        30.42S WCI  -1
COLDWATER      CLOUDY    12   6  76 NW5       30.45S WCI   4
FREMONT        CLOUDY    10   3  72 CALM      30.45F
HOLLAND        CLOUDY    13   3  64 E6        30.48S WCI   4
GRAND RAPIDS   CLOUDY    12   1  61 N6        30.46S WCI   3
IONIA          CLOUDY    11   0  61 NW5       30.45S WCI   3
KALAMAZOO      LGT SNOW  12   6  77 NW3       30.46S
LUDINGTON      CLOUDY    12   5  73 CALM      30.46F
MARSHALL       CLOUDY    11  -1  58 W6        30.45S WCI   2
MOUNT PLEASANT CLEAR      9  -1  66 W3        30.44S
MUSKEGON       FLURRIES  13   3  64 E3        30.48S
SOUTH HAVEN    CLOUDY    16   7  67 CALM      30.47S
$$
MIZ016>042-140400-
NORTHERN LOWER MICHIGAN

CITY           SKY/WX    TMP DP  RH WIND       PRES   REMARKS
ALPENA         CLEAR      1  -9  62 SW6       30.41F WCI -10
BEAVER ISLAND  CLOUDY    12   2  65 W9        30.42S WCI   0
BELLAIRE       CLOUDY     9   6  89 CALM      30.44S
CADILLAC       CLOUDY     2  -2  81 CALM      30.36F
CHARLEVOIX     CLOUDY    14   2  58 NW13      30.44F WCI   0
FRANKFORT      CLOUDY    15   2  56 NW3       30.44F
GAYLORD        LGT SNOW   0  -5  79 CALM      30.35F
GRAYLING       CLOUDY     0  -5  80 CALM      30.39S
HARBOR SPRINGS CLOUDY     8   1  74 W3        30.41S
HOUGHTON LAKE  LGT SNOW   8   3  80 W6        30.39S WCI  -2
MANISTEE       CLOUDY    12   1  62 CALM      30.45F
OSCODA         CLEAR     -9 -16  70 CALM      30.44S
PELLSTON       MOCLDY    -7 -12  79 CALM      30.41F
ROGERS CITY    CLOUDY     6  -2  69 W8        30.41F WCI  -7
TRAVERSE CITY  CLOUDY    13   3  64 W9        30.43S WCI   1
$$
MIZ007>008-015-140400-
EASTERN UPPER MICHIGAN

CITY           SKY/WX    TMP DP  RH WIND       PRES   REMARKS
KINROSS        CLOUDY     0  -2  92 NE5       30.41S WCI -10
MACKINAC ISLAN MOCLDY     9   4  82 NW5       30.40S WCI   0
NEWBERRY       FLURRIES   3   0  90 SW7       30.38S WCI -10
S. S. MARIE    MOCLDY    -2 -10  69 E3        30.42R
MUNISING         N/A      8   2  76 W9        30.42S WCI  -5
$$
MIZ004>006-011>014-085-140400-
CENTRAL UPPER MICHIGAN

CITY           SKY/WX    TMP DP  RH WIND       PRES   REMARKS
MANISTIQUE     PTCLDY     2  -5  73 W5        30.43S WCI  -8
ESCANABA       CLEAR     -6 -15  65 CALM      30.45S
MENOMINEE      CLEAR      1  -6  71 CALM      30.44S
SAWYER-GWINN   CLEAR     -8 -11  84 W7        30.38S WCI -22
$$
MIZ001>003-009>011-084-140400-
WESTERN UPPER MICHIGAN

CITY           SKY/WX    TMP DP  RH WIND       PRES   REMARKS
IRON MOUNTAIN  CLOUDY    -6 -11  79 CALM      30.39R
HOUGHTON       FLURRIES   3  -2  79 CALM      30.36F
COPPER HARBOR    N/A      7   3  84 VRB5      30.40F WCI  -2
IRONWOOD       CLOUDY   -13 -20  70 CALM      30.33F
$$

ABBREVIATIONS USED IN REMARKS
   TC - TEMPERATURE IN CELSIUS
  WCI - WIND CHILL INDEX
   HX - HEAT INDEX
  VSB - VISIBILITY




USA.gov is the U.S. government's official web portal to all federal, state and local government web resources and services.